Pocatello, ID

4:43 PM MST on January 17, 2017 (GMT -0700)
Pocatello Regional

Weather History for KPIH - October, 2014

Change the Weather History Date:

Thursday, October 16, 2014

  Actual Average Record
Temperature  
Mean Temperature 45 °F 47 °F  
Max Temperature 60 °F 61 °F 81 °F (2015)
Min Temperature 29 °F 33 °F 20 °F (1966)
Degree Days  
Heating Degree Days 20 18  
Month to date heating degree days 192 244  
Since 1 July heating degree days 370 493  
Cooling Degree Days 0 0  
Month to date cooling degree days 0 0  
Year to date cooling degree days 421 392  
Moisture  
Dew Point 29 °F    
Average Humidity 60    
Maximum Humidity 92    
Minimum Humidity 27    
Precipitation  
Precipitation 0.00 in 0.03 in 0.51 in (2016)
Month to date precipitation 0.03 0.45  
Year to date precipitation 10.29 9.36  
Snow  
Snow 0.00 in - - ()
Month to date snowfall 0.0  
Since 1 July snowfall 0.0  
Since 1 September snowfall 0.0  
Snow Depth 0.00 in    
Sea Level Pressure  
Sea Level Pressure 30.12 in    
Wind  
Wind Speed 4 mph (NNE)    
Max Wind Speed 12 mph    
Max Gust Speed 14 mph    
Visibility 10 miles    
Events      
T = Trace of Precipitation, MM = Missing Value Source: NWS Daily Summary

Daily Weather History Graph

Daily Weather History Graph

Search for Another Location

Airport or City:

Trip Planner

Search our weather history database for the weather conditions in past years. The results will help you decide how hot, cold, wet, or windy it might be!

Date:

Astronomy

Oct. 16, 2014 Rise Set
Actual Time 7:45 AM MDT 6:46 PM MDT
Civil Twilight 7:16 AM MDT 7:14 PM MDT
Nautical Twilight 6:43 AM MDT 7:47 PM MDT
Astronomical Twilight 6:10 AM MDT 8:20 PM MDT
Moon 12:49 AM MDT (10/16) 3:08 PM MDT (10/16)
Length of Visible Light 11h 58m
Length of Day
11h 00m
Last Quarter, 41% of the Moon is Illuminated
Oct 16
Last Quarter
Oct 23
New
Oct 30
First Quarter
Nov 6
Full
Nov 14
Last Quarter

Hourly Weather History & Observations

Time (MDT) Temp. Windchill Dew Point Humidity Pressure Visibility Wind Dir Wind Speed Gust Speed Precip Events Conditions
12:53 AM 43.0 °F 38.2 °F 30.0 °F 60% 30.06 in 10.0 mi SSW 8.1 mph - N/A   Clear
1:53 AM 45.0 °F 41.8 °F 30.0 °F 56% 30.08 in 10.0 mi SSW 5.8 mph - N/A   Clear
2:53 AM 43.0 °F 36.8 °F 28.9 °F 58% 30.07 in 10.0 mi SSW 11.5 mph - N/A   Clear
3:53 AM 37.9 °F - 28.9 °F 70% 30.09 in 10.0 mi Calm Calm - N/A   Clear
4:53 AM 32.0 °F 27.5 °F 26.1 °F 79% 30.13 in 10.0 mi North 4.6 mph - N/A   Clear
5:53 AM 30.0 °F - 27.0 °F 88% 30.15 in 10.0 mi Calm Calm - N/A   Clear
6:53 AM 30.9 °F 27.5 °F 28.0 °F 89% 30.17 in 10.0 mi NE 3.5 mph - N/A   Clear
7:53 AM 32.0 °F - 28.0 °F 85% 30.18 in 10.0 mi Calm Calm - N/A   Clear
8:53 AM 37.9 °F - 30.9 °F 76% 30.18 in 10.0 mi Calm Calm - N/A   Clear
9:53 AM 41.0 °F 39.0 °F 33.1 °F 73% 30.18 in 10.0 mi WNW 3.5 mph - N/A   Clear
10:53 AM 46.9 °F - 33.1 °F 59% 30.17 in 10.0 mi Calm Calm - N/A   Clear
11:53 AM 52.0 °F - 32.0 °F 47% 30.14 in 10.0 mi North 3.5 mph - N/A   Clear
12:53 PM 54.0 °F - 28.0 °F 37% 30.13 in 10.0 mi Variable 3.5 mph - N/A   Clear
1:53 PM 55.9 °F - 28.0 °F 34% 30.09 in 10.0 mi West 6.9 mph - N/A   Clear
2:53 PM 57.9 °F - 25.0 °F 28% 30.07 in 10.0 mi Variable 4.6 mph - N/A   Clear
3:53 PM 57.9 °F - 27.0 °F 31% 30.08 in 10.0 mi NE 5.8 mph - N/A   Clear
4:53 PM 60.1 °F - 26.1 °F 27% 30.08 in 10.0 mi Calm Calm - N/A   Clear
5:53 PM 57.9 °F - 28.0 °F 32% 30.10 in 10.0 mi NNE 6.9 mph - N/A   Clear
6:53 PM 51.1 °F - 28.9 °F 43% 30.11 in 10.0 mi NE 6.9 mph - N/A   Clear
7:53 PM 46.9 °F - 30.0 °F 52% 30.12 in 10.0 mi East 5.8 mph - N/A   Clear
8:53 PM 44.6 °F 40.7 °F 30.2 °F 57% 30.10 in 10.0 mi East 6.9 mph - N/A   Clear
9:53 PM 37.9 °F - 30.9 °F 76% 30.12 in 10.0 mi Calm Calm - N/A   Clear
10:53 PM 37.0 °F - 30.0 °F 76% 30.11 in 10.0 mi Calm Calm - N/A   Clear
11:20 PM - - - N/A% - - Variable 5.8 mph - N/A   Scattered Clouds
11:53 PM 36.0 °F 31.1 °F 28.9 °F 76% 30.10 in 10.0 mi West 5.8 mph - N/A   Clear